Location: Pinawa
(50.1500°N, 95.8830°W)
Time: 21:56:23
(UTC-06:00)

Amateur Radio Satellites - All Passes

Search period start: 05 March 2015 21:26
Search period end: 06 March 2015 21:26
Location: Pinawa, 50.1500°N, 95.8830°W

Satellite Date Start Highest point End Downlink Frequencies (MHz)
Time Altitude Azimuth
GONETS M04 05 Mar 21:40:59 21:49:29 64° 93° (E) 21:58:04
AAUSAT CUBESAT 2 05 Mar 21:41:02 21:44:19 22° 268° (W) 21:47:34 437.432
UWE-3 05 Mar 21:42:50 21:47:11 62° 259° (W) 21:51:26 435.000/436.395/437.385
COMPASS 1 05 Mar 21:46:57 21:49:51 18° 271° (W) 21:52:37 437.405
BEESAT 2 05 Mar 21:47:13 21:48:33 11° 6° (N) 21:49:52 435.950
ESTCUBE 1 05 Mar 21:47:30 21:51:25 30° 65° (ENE) 21:55:26 437.505/2401.250
PCSat 05 Mar 21:47:50 21:53:02 45° 316° (NW) 21:58:16 145.827
50 SAT 05 Mar 21:48:24 21:52:15 50° 71° (ENE) 21:56:07 437.505
UNISAT 6 05 Mar 21:51:27 21:53:16 13° 86° (E) 21:55:19 437.425
Oscar 11 05 Mar 21:58:13 22:02:01 29° 266° (W) 22:05:47 145.826/435.025
AIST 2 05 Mar 22:03:19 22:04:48 11° 0° (N) 22:06:17 435.215
POPSAT HIP 1 05 Mar 22:10:28 22:11:19 11° 84° (E) 22:12:23 437.405
POLYITAN 1 05 Mar 22:11:27 22:12:38 11° 85° (E) 22:14:02 437.675
TIGRISAT 05 Mar 22:13:49 22:16:59 20° 91° (E) 22:20:15 435.000
HUMSAT D 05 Mar 22:27:57 22:31:59 46° 261° (W) 22:35:59 437.325/437.525
DX 1 05 Mar 22:28:27 22:32:17 28° 266° (W) 22:36:05 434.975-435.025
DELFI C3 05 Mar 22:28:37 22:31:25 17° 271° (W) 22:34:07 145.870
ANTELSAT 05 Mar 22:28:59 22:32:44 29° 94° (E) 22:36:33 437.575/2403.000
CUBEBUG 2 05 Mar 22:29:06 22:32:28 20° 269° (W) 22:35:41 437.445
HO-68 05 Mar 22:30:18 22:33:29 13° 280° (W) 22:36:13 435.675
NANOSAT C BR1 05 Mar 22:30:40 22:33:28 17° 89° (E) 22:36:20 145.865
CINEMA 3 05 Mar 22:33:23 22:35:35 13° 274° (W) 22:37:33 145.822/145.860
CUBEBUG 1 05 Mar 22:38:12 22:42:38 78° 74° (ENE) 22:47:07 437.445
DANDE 05 Mar 22:47:05 22:50:25 16° 92° (E) 22:53:28 436.750
AISAT 05 Mar 22:47:13 22:51:30 41° 262° (W) 22:55:47 437.250
TISAT 1 05 Mar 22:48:46 22:52:24 28° 65° (ENE) 22:56:04 437.305
FUNcube-1 05 Mar 22:51:21 22:54:19 18° 271° (W) 22:57:09 145.935
ZACube-1 05 Mar 22:54:07 22:56:57 16° 271° (W) 22:59:36 437.345
UKube-1 05 Mar 22:54:39 22:57:38 17° 270° (W) 23:00:30 .
VELOX 1 05 Mar 22:55:13 22:59:22 36° 263° (W) 23:03:31 145.980
BEESAT 3 05 Mar 22:55:33 22:58:21 17° 24° (NNE) 23:01:10 437.485
CUSAT 1 05 Mar 22:55:38 22:59:31 21° 95° (E) 23:02:49 437.405
BUGSAT 1 05 Mar 22:56:07 22:59:25 23° 92° (E) 23:02:44 437.445
SPROUT 05 Mar 22:57:04 23:01:00 35° 67° (ENE) 23:04:59 437.525
QB50P1 05 Mar 23:03:43 23:07:38 35° 96° (E) 23:11:32 145.935-145.965
ITUPSAT 1 05 Mar 23:07:07 23:08:25 11° 52° (NE) 23:09:56 437.325
QB50P2 05 Mar 23:08:47 23:12:48 40° 98° (E) 23:16:48 145.880/145.840
RS-15 05 Mar 23:18:08 23:28:46 64° 120° (ESE) 23:39:41 29.354- 29.394
DUCHIFAT 1 05 Mar 23:20:39 23:24:47 51° 100° (E) 23:28:53 145.980
ESTCUBE 1 05 Mar 23:24:00 23:28:14 37° 263° (W) 23:32:29 437.505/2401.250
50 SAT 05 Mar 23:24:51 23:27:35 17° 270° (W) 23:30:12 437.505
BEESAT 2 05 Mar 23:24:55 23:28:11 22° 29° (NNE) 23:31:29 435.950
UNISAT 6 05 Mar 23:26:24 23:30:44 81° 286° (WNW) 23:35:05 437.425
PCSat 05 Mar 23:34:18 23:37:52 17° 340° (NNW) 23:41:23 145.827
GONETS M04 05 Mar 23:39:03 23:46:59 37° 297° (WNW) 23:54:50
AIST 2 05 Mar 23:42:04 23:45:03 18° 24° (NNE) 23:48:03 435.215
POPSAT HIP 1 05 Mar 23:43:43 23:47:59 88° 96° (E) 23:52:12 437.405
POLYITAN 1 05 Mar 23:45:02 23:49:18 88° 294° (WNW) 23:53:31 437.675
TIGRISAT 05 Mar 23:49:54 23:54:03 49° 290° (WNW) 23:58:14 435.000
SWISSCUBE 06 Mar 00:03:42 00:07:56 33° 64° (ENE) 00:12:14 437.505
NANOSAT C BR1 06 Mar 00:05:34 00:09:44 56° 288° (WNW) 00:13:51 145.865
ANTELSAT 06 Mar 00:05:41 00:09:37 35° 292° (WNW) 00:13:33 437.575/2403.000
BEESAT 06 Mar 00:11:33 00:15:51 35° 65° (ENE) 00:20:14 436.000
CUBEBUG 1 06 Mar 00:17:12 00:19:39 14° 274° (W) 00:21:56 437.445
TISAT 1 06 Mar 00:24:07 00:28:06 37° 263° (W) 00:32:06 437.305
DANDE 06 Mar 00:27:39 00:33:39 75° 283° (WNW) 00:38:03 436.750
BUGSAT 1 06 Mar 00:31:10 00:35:07 41° 291° (WNW) 00:38:58 437.445
BEESAT 3 06 Mar 00:33:06 00:37:15 62° 46° (NE) 00:41:19 437.485
SPROUT 06 Mar 00:33:22 00:37:10 29° 266° (W) 00:40:57 437.525
CUSAT 1 06 Mar 00:37:06 00:42:19 49° 285° (WNW) 00:46:14 437.405
QB50P1 06 Mar 00:39:48 00:43:27 28° 295° (WNW) 00:47:01 145.935-145.965
ITUPSAT 1 06 Mar 00:40:44 00:45:27 61° 71° (ENE) 00:50:14 437.325
QB50P2 06 Mar 00:45:03 00:48:33 25° 296° (WNW) 00:51:59 145.880/145.840
Oscar 19 06 Mar 00:52:08 00:55:40 19° 88° (E) 00:59:20 437.125/150
DUCHIFAT 1 06 Mar 00:57:10 01:00:20 20° 298° (WNW) 01:03:25 145.980
STARS 06 Mar 01:01:30 01:04:15 17° 59° (ENE) 01:07:06 437.465
KKS-1 06 Mar 01:02:34 01:06:06 24° 63° (ENE) 01:09:43 437.445
BEESAT 2 06 Mar 01:02:43 01:06:55 86° 231° (SW) 01:11:03 435.950
UNISAT 6 06 Mar 01:05:08 01:06:54 12° 304° (WNW) 01:08:32 437.425
SO-50 06 Mar 01:14:53 01:19:19 47° 123° (ESE) 01:23:57 436.795
AIST 2 06 Mar 01:20:12 01:24:29 62° 47° (NE) 01:28:42 435.215
PCSat 06 Mar 01:20:52 01:23:31 14° 6° (N) 01:26:13 145.827
POPSAT HIP 1 06 Mar 01:21:11 01:23:18 13° 303° (WNW) 01:25:16 437.405
POLYITAN 1 06 Mar 01:22:39 01:24:38 13° 303° (WNW) 01:26:28 437.675
RS-15 06 Mar 01:30:52 01:41:35 55° 328° (NNW) 01:52:37 29.354- 29.394
YUBILEINY 06 Mar 01:35:56 01:43:31 31° 59° (ENE) 01:51:13 435.215
SWISSCUBE 06 Mar 01:41:17 01:45:45 38° 263° (W) 01:50:14 437.505
GONETS M04 06 Mar 01:46:39 01:47:25 10° 327° (NNW) 01:47:46
BEESAT 06 Mar 01:49:21 01:53:44 35° 264° (W) 01:58:07 436.000
BEESAT 3 06 Mar 02:11:54 02:14:59 20° 245° (WSW) 02:17:56 437.485
DANDE 06 Mar 02:15:37 02:17:25 11° 299° (WNW) 02:18:52 436.750
AUBIESAT-1 06 Mar 02:18:36 02:20:08 13° 51° (NE) 02:21:51 437.475
M-CUBED/EXP-1 PRIME 06 Mar 02:19:27 02:21:18 14° 52° (NE) 02:23:18 437.505
ITUPSAT 1 06 Mar 02:20:13 02:23:49 20° 270° (W) 02:27:18 437.325
Oscar 19 06 Mar 02:30:29 02:35:37 71° 288° (WNW) 02:40:43 437.125/150
Gurwin Techsat 1B 06 Mar 02:30:37 02:35:32 37° 96° (E) 02:40:28 435.225
STARS 06 Mar 02:35:49 02:40:15 74° 257° (WSW) 02:44:41 437.465
ITAMSAT 1 06 Mar 02:36:55 02:42:01 52° 99° (E) 02:47:06 435.822/435.867
KKS-1 06 Mar 02:38:11 02:42:31 48° 261° (W) 02:46:53 437.445
MOZHAYETS 4 06 Mar 02:41:17 02:43:50 15° 57° (ENE) 02:46:33
BEESAT 2 06 Mar 02:42:38 02:44:29 12° 249° (WSW) 02:46:10 435.950
HORYU 2 06 Mar 02:53:42 02:56:24 16° 88° (E) 02:59:17 437.375
SO-50 06 Mar 02:55:37 03:00:02 37° 324° (NW) 03:04:33 436.795
AIST 2 06 Mar 02:59:31 03:02:44 21° 245° (WSW) 03:05:50 435.215
JAS-2 06 Mar 03:02:51 03:06:45 15° 79° (E) 03:11:10 435.910
PCSat 06 Mar 03:04:28 03:08:55 25° 31° (NNE) 03:13:24 145.827
AO-7 06 Mar 03:12:16 03:18:04 21° 86° (E) 03:24:11 29.400- 29.500
YUBILEINY 06 Mar 03:32:30 03:41:23 77° 264° (W) 03:50:10 435.215
RS-15 06 Mar 03:46:39 03:56:48 38° 0° (N) 04:07:19 29.354- 29.394
AUBIESAT-1 06 Mar 03:51:07 03:54:30 74° 251° (WSW) 03:58:08 437.475
M-CUBED/EXP-1 PRIME 06 Mar 03:52:27 03:55:48 63° 252° (WSW) 03:59:23 437.505
Gurwin Techsat 1B 06 Mar 04:10:38 04:15:34 39° 295° (WNW) 04:20:27 435.225
Oscar 19 06 Mar 04:11:35 04:14:11 14° 307° (NW) 04:16:36 437.125/150
MOZHAYETS 4 06 Mar 04:15:54 04:20:29 87° 256° (WSW) 04:25:07
ITAMSAT 1 06 Mar 04:16:51 04:21:19 28° 299° (WNW) 04:25:40 435.822/435.867
HORYU 2 06 Mar 04:29:09 04:33:36 67° 288° (WNW) 04:38:02 437.375
SO-50 06 Mar 04:38:46 04:41:54 17° 347° (NNW) 04:45:02 436.795
JAS-2 06 Mar 04:45:51 04:53:16 64° 100° (E) 05:01:06 435.910
PCSat 06 Mar 04:47:37 04:53:07 88° 60° (ENE) 04:58:33 145.827
STRAND 1 06 Mar 04:48:48 04:52:16 19° 57° (ENE) 04:55:54 437.568
CUBESAT XI-V 06 Mar 04:49:32 04:53:12 23° 62° (ENE) 04:56:59 437.345
AO-7 06 Mar 05:03:55 05:12:17 83° 109° (ESE) 05:20:36 29.400- 29.500
YUBILEINY 06 Mar 05:31:00 05:36:52 19° 285° (WNW) 05:42:18 435.215
PRISM 06 Mar 05:33:21 05:37:25 54° 71° (ENE) 05:41:33 437.425
AIST 1 06 Mar 05:42:57 05:44:30 12° 82° (E) 05:46:15
GONETS M04 06 Mar 05:50:40 05:53:14 12° 37° (NE) 05:56:15
MOZHAYETS 4 06 Mar 05:56:46 05:58:33 12° 276° (W) 06:00:06
RS-15 06 Mar 06:01:04 06:12:03 55° 32° (NNE) 06:23:34 29.354- 29.394
HORYU 2 06 Mar 06:08:10 06:09:31 11° 306° (NW) 06:10:41 437.375
SO-50 06 Mar 06:21:10 06:24:15 16° 12° (NNE) 06:27:24 436.795
CUBESAT XI-V 06 Mar 06:25:45 06:30:22 54° 261° (W) 06:35:02 437.345
STRAND 1 06 Mar 06:25:46 06:30:56 82° 255° (WSW) 06:36:09 437.568
JAS-2 06 Mar 06:31:22 06:38:01 37° 299° (WNW) 06:44:55 435.910
PCSat 06 Mar 06:32:16 06:35:54 18° 253° (WSW) 06:39:21 145.827
Cubesat XI-IV 06 Mar 06:33:05 06:38:20 51° 99° (E) 06:43:33 437.490
CUTE-I 06 Mar 06:40:52 06:46:11 58° 101° (E) 06:51:28 437.470
AO-7 06 Mar 06:57:22 07:04:23 31° 311° (NW) 07:11:16 29.400- 29.500
PRISM 06 Mar 07:10:23 07:13:19 18° 270° (W) 07:16:09 437.425
AIST 1 06 Mar 07:17:09 07:21:32 85° 280° (W) 07:25:59
O/OREOS (USA 219) 06 Mar 07:44:19 07:45:59 12° 98° (E) 07:47:54 437.305
GONETS M04 06 Mar 07:45:14 07:53:23 42° 66° (ENE) 08:01:38
HO-68 06 Mar 08:00:13 08:05:23 21° 87° (E) 08:10:46 435.675
SO-50 06 Mar 08:01:40 08:06:10 35° 35° (NE) 08:10:44 436.795
STRAND 1 06 Mar 08:08:36 08:11:05 13° 276° (W) 08:13:19 437.568
Cubesat XI-IV 06 Mar 08:13:36 08:18:14 30° 299° (WNW) 08:22:48 437.490
RS-15 06 Mar 08:13:50 08:25:04 67° 239° (WSW) 08:36:45 29.354- 29.394
JAS-2 06 Mar 08:19:24 08:21:17 11° 320° (NW) 08:22:50 435.910
CUTE-I 06 Mar 08:21:30 08:25:59 27° 300° (WNW) 08:30:19 437.470
SEEDS 06 Mar 08:22:54 08:25:37 17° 89° (E) 08:28:28 437.485
CANX-2 06 Mar 08:31:56 08:35:30 26° 93° (E) 08:39:07 2200.000
ISS 06 Mar 08:42:07 08:45:08 38° 151° (SSE) 08:48:10 145.825
CINEMA 3 06 Mar 08:45:01 08:46:57 13° 86° (E) 08:49:05 145.822/145.860
DUCHIFAT 1 06 Mar 08:45:34 08:46:35 11° 55° (NE) 08:47:46 145.980
GOMX 1 06 Mar 08:49:06 08:53:09 36° 95° (E) 08:57:03 467.674
CUTE 1.7 + AOD 2 06 Mar 08:49:43 08:53:38 35° 96° (E) 08:57:34 437.475
AO-7 06 Mar 08:51:57 08:54:38 12° 336° (NNW) 08:57:06 29.400- 29.500
UNISAT 6 06 Mar 08:54:40 08:57:54 21° 62° (ENE) 09:01:12 437.425
AIST 1 06 Mar 08:58:16 09:00:04 12° 302° (WNW) 09:01:40
BRITE-PL 06 Mar 09:04:26 09:09:01 76° 102° (ESE) 09:13:17 437.365/2234.400
DOVE 4 06 Mar 09:05:04 09:09:01 36° 96° (E) 09:12:53 437.250
POPSAT HIP 1 06 Mar 09:07:03 09:09:46 17° 60° (ENE) 09:12:35 437.405
POLYITAN 1 06 Mar 09:08:29 09:11:17 18° 61° (ENE) 09:14:13 437.675
TIGRISAT 06 Mar 09:17:04 09:20:54 32° 66° (ENE) 09:24:44 435.000
AAUSAT CUBESAT 2 06 Mar 09:18:32 09:22:32 42° 98° (E) 09:26:34 437.432
O/OREOS (USA 219) 06 Mar 09:20:09 09:24:45 87° 112° (ESE) 09:29:23 437.305
COMPASS 1 06 Mar 09:24:15 09:28:24 55° 100° (E) 09:32:34 437.405
NANOSAT C BR1 06 Mar 09:27:42 09:31:11 25° 64° (ENE) 09:34:42 145.865
UWE-3 06 Mar 09:28:57 09:31:48 18° 90° (E) 09:34:44 435.000/436.395/437.385
ANTELSAT 06 Mar 09:32:34 09:36:42 45° 70° (ENE) 09:40:49 437.575/2403.000
Oscar 11 06 Mar 09:40:21 09:44:21 36° 96° (E) 09:48:23 145.826/435.025
GONETS M04 06 Mar 09:42:08 09:50:38 56° 269° (W) 09:59:06
SO-50 06 Mar 09:42:09 09:47:00 56° 236° (SW) 09:51:49 436.795
HO-68 06 Mar 09:46:55 09:54:10 89° 289° (WNW) 10:01:23 435.675
BUGSAT 1 06 Mar 09:50:30 09:54:16 31° 66° (ENE) 09:58:04 437.445
SEEDS 06 Mar 09:57:41 10:01:52 59° 288° (WNW) 10:06:03 437.485
QB50P1 06 Mar 10:00:51 10:04:59 50° 70° (ENE) 10:09:09 145.935-145.965
DELFI C3 06 Mar 10:02:19 10:06:17 47° 99° (E) 10:10:16 145.870
QB50P2 06 Mar 10:06:05 10:10:17 57° 71° (ENE) 10:14:29 145.880/145.840
CANX-2 06 Mar 10:07:36 10:11:34 38° 292° (WNW) 10:15:31 2200.000
HUMSAT D 06 Mar 10:08:05 10:11:09 20° 91° (E) 10:14:16 437.325/437.525
DX 1 06 Mar 10:11:38 10:15:40 35° 97° (E) 10:19:41 434.975-435.025
CUBEBUG 2 06 Mar 10:14:10 10:18:18 58° 101° (E) 10:22:26 437.445
DUCHIFAT 1 06 Mar 10:17:28 10:21:43 71° 73° (ENE) 10:25:59 145.980
ISS 06 Mar 10:18:14 10:21:28 74° 351° (N) 10:24:42 145.825
CINEMA 3 06 Mar 10:20:37 10:24:48 71° 286° (WNW) 10:28:56 145.822/145.860
CUBEBUG 1 06 Mar 10:25:17 10:26:09 11° 84° (E) 10:27:15 437.445
CUTE 1.7 + AOD 2 06 Mar 10:25:48 10:29:30 29° 294° (WNW) 10:33:09 437.475
GOMX 1 06 Mar 10:27:29 10:31:14 27° 296° (WNW) 10:34:46 467.674
RS-15 06 Mar 10:28:05 10:35:35 19° 261° (W) 10:42:35 29.354- 29.394
UNISAT 6 06 Mar 10:30:12 10:34:27 51° 260° (W) 10:38:40 437.425
FUNcube-1 06 Mar 10:33:22 10:37:30 63° 101° (E) 10:41:38 145.935
AISAT 06 Mar 10:33:38 10:37:26 27° 94° (E) 10:41:14 437.250
UKube-1 06 Mar 10:35:51 10:40:09 57° 101° (E) 10:44:25 .
ZACube-1 06 Mar 10:36:08 10:40:18 68° 102° (ESE) 10:44:28 437.345
POPSAT HIP 1 06 Mar 10:40:57 10:45:14 68° 258° (WSW) 10:49:31 437.405
VELOX 1 06 Mar 10:41:05 10:45:03 31° 95° (E) 10:49:01 145.980
POLYITAN 1 06 Mar 10:42:35 10:46:50 64° 258° (WSW) 10:51:06 437.675
DOVE 4 06 Mar 10:43:07 10:46:43 26° 296° (WNW) 10:50:11 437.250
BRITE-PL 06 Mar 10:44:11 10:46:59 16° 303° (WNW) 10:49:34 437.365/2234.400
TIGRISAT 06 Mar 10:53:47 10:57:41 31° 265° (W) 11:01:31 435.000
AAUSAT CUBESAT 2 06 Mar 10:54:37 10:58:00 24° 296° (WNW) 11:01:21 437.432
50 SAT 06 Mar 10:57:07 11:00:55 43° 98° (E) 11:04:43 437.505
COMPASS 1 06 Mar 11:00:44 11:03:48 19° 298° (WNW) 11:06:46 437.405
O/OREOS (USA 219) 06 Mar 11:01:38 11:04:52 18° 318° (NW) 11:08:02 437.305
NANOSAT C BR1 06 Mar 11:02:49 11:06:53 41° 262° (W) 11:10:57 145.865
UWE-3 06 Mar 11:04:39 11:08:43 52° 289° (WNW) 11:12:47 435.000/436.395/437.385
DANDE 06 Mar 11:05:07 11:07:44 50° 261° (W) 11:10:18 436.750
ANTELSAT 06 Mar 11:10:19 11:13:46 22° 268° (W) 11:17:06 437.575/2403.000
CUSAT 1 06 Mar 11:10:58 11:13:16 28° 264° (W) 11:15:38 437.405
ESTCUBE 1 06 Mar 11:11:55 11:16:03 33° 95° (E) 11:20:11 437.505/2401.250
Oscar 11 06 Mar 11:16:43 11:20:28 29° 295° (WNW) 11:24:10 145.826/435.025
BUGSAT 1 06 Mar 11:25:52 11:29:45 32° 265° (W) 11:33:36 437.445
HO-68 06 Mar 11:35:30 11:41:08 25° 309° (NW) 11:46:37 435.675
QB50P1 06 Mar 11:37:57 11:41:10 20° 269° (W) 11:44:20 145.935-145.965
DELFI C3 06 Mar 11:38:07 11:41:14 21° 297° (WNW) 11:44:16 145.870
GONETS M04 06 Mar 11:42:04 11:45:38 13° 291° (WNW) 11:48:39
HUMSAT D 06 Mar 11:43:14 11:47:12 46° 290° (WNW) 11:51:09 437.325/437.525
QB50P2 06 Mar 11:43:37 11:46:36 18° 271° (W) 11:49:28 145.880/145.840
DX 1 06 Mar 11:48:02 11:51:52 30° 295° (WNW) 11:55:39 434.975-435.025
CUBEBUG 2 06 Mar 11:51:48 11:54:40 18° 299° (WNW) 11:57:26 437.445
ISS 06 Mar 11:54:48 11:58:03 73° 10° (N) 12:01:17 145.825
DUCHIFAT 1 06 Mar 11:55:42 11:58:07 14° 273° (W) 12:00:23 145.980
CUBEBUG 1 06 Mar 11:58:54 12:03:22 83° 105° (ESE) 12:07:46 437.445
CINEMA 3 06 Mar 12:00:51 12:01:19 10° 305° (NW) 12:01:36 145.822/145.860
TISAT 1 06 Mar 12:04:23 12:07:52 25° 93° (E) 12:11:23 437.305
AISAT 06 Mar 12:10:01 12:14:11 39° 293° (WNW) 12:18:17 437.250
FUNcube-1 06 Mar 12:10:44 12:13:29 17° 299° (WNW) 12:16:06 145.935
UKube-1 06 Mar 12:12:46 12:15:58 20° 300° (WNW) 12:19:05 .
Oscar 19 06 Mar 12:13:10 12:17:58 43° 67° (ENE) 12:22:50 437.125/150
ZACube-1 06 Mar 12:13:40 12:16:15 16° 300° (WNW) 12:18:43 437.345
SPROUT 06 Mar 12:14:58 12:18:56 35° 96° (E) 12:22:54 437.525
VELOX 1 06 Mar 12:17:37 12:21:41 34° 294° (WNW) 12:25:40 145.980
Gurwin Techsat 1B 06 Mar 12:18:59 12:22:18 17° 55° (NE) 12:25:47 435.225
ITAMSAT 1 06 Mar 12:21:49 12:25:45 22° 58° (ENE) 12:29:47 435.822/435.867
AO-7 06 Mar 12:28:13 12:32:43 16° 34° (NNE) 12:37:27 29.400- 29.500
50 SAT 06 Mar 12:32:39 12:35:42 21° 296° (WNW) 12:38:40 437.505
ITUPSAT 1 06 Mar 12:39:08 12:40:26 11° 83° (E) 12:42:01 437.325
ESTCUBE 1 06 Mar 12:48:49 12:52:57 34° 294° (WNW) 12:57:02 437.505/2401.250
JAS-2 06 Mar 13:23:53 13:25:37 11° 40° (NE) 13:27:37 435.910
ISS 06 Mar 13:31:19 13:34:23 39° 209° (SSW) 13:37:25 145.825
CUBEBUG 1 06 Mar 13:36:36 13:39:11 15° 302° (WNW) 13:41:37 437.445
SWISSCUBE 06 Mar 13:36:38 13:41:10 39° 97° (E) 13:45:42 437.505
TISAT 1 06 Mar 13:39:53 13:43:50 39° 292° (WNW) 13:47:44 437.305
BEESAT 06 Mar 13:44:26 13:49:02 43° 98° (E) 13:53:37 436.000
SPROUT 06 Mar 13:51:14 13:54:58 29° 295° (WNW) 13:58:38 437.525
Oscar 19 06 Mar 13:52:56 13:57:30 31° 266° (W) 14:02:02 437.125/150
Gurwin Techsat 1B 06 Mar 13:56:18 14:01:37 87° 77° (ENE) 14:07:00 435.225
HORYU 2 06 Mar 13:56:18 14:00:00 27° 63° (ENE) 14:03:46 437.375
ITAMSAT 1 06 Mar 13:59:36 14:04:50 69° 257° (WSW) 14:10:05 435.822/435.867
ITUPSAT 1 06 Mar 14:14:25 14:19:17 77° 104° (ESE) 14:24:07 437.325
AO-7 06 Mar 14:15:52 14:23:38 47° 57° (ENE) 14:31:29 29.400- 29.500
STARS 06 Mar 14:22:23 14:24:51 15° 88° (E) 14:27:28 437.465
KKS-1 06 Mar 14:25:04 14:28:38 23° 92° (E) 14:32:14 437.445
YUBILEINY 06 Mar 14:44:23 14:51:16 28° 80° (E) 14:58:25 435.215
JAS-2 06 Mar 15:03:31 15:08:59 43° 63° (ENE) 15:15:12 435.910
SWISSCUBE 06 Mar 15:14:41 15:18:58 32° 296° (WNW) 15:23:10 437.505
BEESAT 06 Mar 15:22:35 15:26:45 29° 297° (WNW) 15:30:51 436.000
HORYU 2 06 Mar 15:32:21 15:36:32 40° 262° (W) 15:40:44 437.375
Gurwin Techsat 1B 06 Mar 15:39:09 15:42:26 16° 275° (W) 15:45:30 435.225
ITAMSAT 1 06 Mar 15:44:02 15:45:28 11° 278° (W) 15:46:34 435.822/435.867
ITUPSAT 1 06 Mar 15:53:21 15:56:40 18° 302° (WNW) 15:59:51 437.325
STARS 06 Mar 15:57:30 16:01:53 70° 287° (WNW) 16:06:14 437.465
KKS-1 06 Mar 16:01:15 16:05:31 45° 291° (WNW) 16:09:44 437.445
MOZHAYETS 4 06 Mar 16:07:26 16:10:24 17° 88° (E) 16:13:31
AO-7 06 Mar 16:08:17 16:16:26 53° 259° (W) 16:24:32 29.400- 29.500
O/OREOS (USA 219) 06 Mar 16:08:36 16:10:24 12° 34° (NE) 16:12:20 437.305
BEESAT 3 06 Mar 16:09:20 16:12:40 25° 117° (ESE) 16:16:05 437.485
Cubesat XI-IV 06 Mar 16:21:26 16:25:36 24° 59° (ENE) 16:29:53 437.490
CUTE-I 06 Mar 16:28:51 16:33:12 27° 60° (ENE) 16:37:40 437.470
YUBILEINY 06 Mar 16:38:31 16:47:18 79° 282° (WNW) 16:56:11 435.215
BEESAT 2 06 Mar 16:39:08 16:42:59 39° 122° (ESE) 16:46:55 435.950
VERMONT LUNAR 06 Mar 16:47:36 16:49:10 13° 165° (SSE) 16:50:48 437.305
JAS-2 06 Mar 16:48:49 16:54:13 39° 267° (W) 17:00:15 435.910
AIST 2 06 Mar 17:01:13 17:04:51 28° 118° (ESE) 17:08:34 435.215
AUBIESAT-1 06 Mar 17:01:44 17:05:50 41° 104° (ESE) 17:10:13 437.475
M-CUBED/EXP-1 PRIME 06 Mar 17:03:29 17:07:39 47° 105° (ESE) 17:12:07 437.505
AIST 1 06 Mar 17:19:43 17:23:54 39° 72° (ENE) 17:28:03
PHONESAT 2.4 06 Mar 17:22:49 17:24:29 13° 163° (SSE) 17:26:11 2401.200-2431.200
STARS 06 Mar 17:36:13 17:37:38 11° 306° (NW) 17:38:52 437.465
MOZHAYETS 4 06 Mar 17:43:32 17:48:10 68° 287° (WNW) 17:52:48
O/OREOS (USA 219) 06 Mar 17:46:28 17:50:59 53° 57° (ENE) 17:55:29 437.305
BEESAT 3 06 Mar 17:46:30 17:50:32 51° 316° (NW) 17:54:36 437.485
Cubesat XI-IV 06 Mar 17:59:57 18:05:18 67° 258° (WSW) 18:10:42 437.490
CUTE-I 06 Mar 18:07:41 18:12:59 59° 259° (WSW) 18:18:20 437.470
AO-7 06 Mar 18:09:03 18:11:35 11° 283° (WNW) 18:13:26 29.400- 29.500
BEESAT 2 06 Mar 18:17:22 18:21:14 35° 322° (NW) 18:25:07 435.950
CUBESAT XI-V 06 Mar 18:18:05 18:22:10 28° 93° (E) 18:26:14 437.345
VERMONT LUNAR 06 Mar 18:23:56 18:26:17 17° 181° (S) 18:28:39 437.305
GOMX 1 06 Mar 18:26:21 18:28:36 13° 56° (ENE) 18:30:59 467.674
STRAND 1 06 Mar 18:32:10 18:36:18 24° 91° (E) 18:40:30 437.568
HO-68 06 Mar 18:34:02 18:39:54 29° 53° (NE) 18:45:53 435.675
AUBIESAT-1 06 Mar 18:36:53 18:40:35 29° 300° (WNW) 18:44:28 437.475
M-CUBED/EXP-1 PRIME 06 Mar 18:38:51 18:42:25 26° 301° (WNW) 18:46:07 437.505
AIST 2 06 Mar 18:39:07 18:43:18 48° 318° (NW) 18:47:30 435.215
YUBILEINY 06 Mar 18:39:13 18:45:55 23° 308° (NW) 18:52:22 435.215
DOVE 4 06 Mar 18:40:42 18:42:24 12° 56° (NE) 18:44:16 437.250
BRITE-PL 06 Mar 18:41:51 18:46:09 25° 63° (ENE) 18:50:20 437.365/2234.400
PRISM 06 Mar 18:46:50 18:50:57 47° 99° (E) 18:55:02 437.425
COMPASS 1 06 Mar 18:48:58 18:49:12 10° 55° (NE) 18:49:36 437.405
AIST 1 06 Mar 18:57:46 19:01:25 25° 271° (W) 19:04:56
PHONESAT 2.4 06 Mar 18:59:34 19:02:08 18° 180° (S) 19:04:42 2401.200-2431.200
SEEDS 06 Mar 19:19:40 19:22:53 22° 63° (ENE) 19:26:11 437.485
MOZHAYETS 4 06 Mar 19:22:57 19:24:38 12° 306° (NW) 19:26:08
O/OREOS (USA 219) 06 Mar 19:26:30 19:30:07 22° 256° (WSW) 19:33:36 437.305
BEESAT 3 06 Mar 19:26:57 19:29:32 16° 338° (NNW) 19:32:06 437.485
CANX-2 06 Mar 19:29:27 19:33:15 33° 67° (ENE) 19:37:04 2200.000
PCSat 06 Mar 19:34:25 19:39:03 30° 113° (ESE) 19:43:47 145.827
CUBEBUG 2 06 Mar 19:43:11 19:45:06 13° 58° (ENE) 19:47:10 437.445
Cubesat XI-IV 06 Mar 19:45:15 19:46:36 11° 279° (W) 19:47:37 437.490
CUTE 1.7 + AOD 2 06 Mar 19:47:06 19:51:06 45° 70° (ENE) 19:55:10 437.475
CINEMA 3 06 Mar 19:50:37 19:54:19 25° 64° (ENE) 19:57:57 145.822/145.860
CUBESAT XI-V 06 Mar 19:55:18 19:59:46 41° 292° (WNW) 20:04:09 437.345
BEESAT 2 06 Mar 19:58:27 20:00:34 13° 344° (NNW) 20:02:39 435.950
FUNcube-1 06 Mar 20:00:17 20:02:08 13° 58° (ENE) 20:04:06 145.935
GOMX 1 06 Mar 20:00:51 20:06:04 71° 74° (ENE) 20:10:59 467.674
UKube-1 06 Mar 20:01:48 20:03:56 14° 56° (ENE) 20:06:13 .
VERMONT LUNAR 06 Mar 20:02:07 20:03:23 12° 198° (SSW) 20:04:37 437.305
ZACube-1 06 Mar 20:02:56 20:05:02 14° 59° (ENE) 20:07:16 437.345
STRAND 1 06 Mar 20:10:49 20:15:53 55° 291° (WNW) 20:20:53 437.568
AAUSAT CUBESAT 2 06 Mar 20:13:57 20:17:58 52° 72° (ENE) 20:22:03 437.432
DOVE 4 06 Mar 20:14:32 20:19:30 68° 74° (ENE) 20:24:11 437.250
BRITE-PL 06 Mar 20:18:53 20:24:22 62° 259° (W) 20:29:32 437.365/2234.400
HO-68 06 Mar 20:19:54 20:27:04 77° 254° (WSW) 20:34:18 435.675
COMPASS 1 06 Mar 20:20:04 20:24:11 69° 74° (ENE) 20:28:21 437.405
AIST 2 06 Mar 20:20:10 20:22:54 16° 340° (NNW) 20:25:34 435.215
PRISM 06 Mar 20:22:51 20:26:13 22° 297° (WNW) 20:29:28 437.425
UWE-3 06 Mar 20:30:33 20:34:12 28° 66° (ENE) 20:37:51 435.000/436.395/437.385
PHONESAT 2.4 06 Mar 20:38:00 20:39:48 13° 196° (SSW) 20:41:32 2401.200-2431.200
Oscar 11 06 Mar 20:39:31 20:43:40 50° 71° (ENE) 20:47:52 145.826/435.025
RS-15 06 Mar 20:40:58 20:43:13 11° 93° (E) 20:46:27 29.354- 29.394
GONETS M04 06 Mar 20:52:47 21:00:28 39° 85° (E) 21:08:20
SEEDS 06 Mar 20:54:27 20:58:29 45° 262° (W) 21:02:32 437.485
DELFI C3 06 Mar 20:54:39 20:58:35 55° 72° (ENE) 21:02:35 145.870
HUMSAT D 06 Mar 21:04:35 21:08:04 27° 66° (ENE) 21:11:36 437.325/437.525
CANX-2 06 Mar 21:05:32 21:09:14 29° 266° (W) 21:12:55 2200.000
BEESAT 3 06 Mar 21:08:14 21:09:17 11° 2° (N) 21:10:20 437.485
DX 1 06 Mar 21:11:31 21:15:49 56° 71° (ENE) 21:20:09 434.975-435.025
CUBEBUG 2 06 Mar 21:16:51 21:21:16 88° 76° (ENE) 21:25:35 437.445
